FLI57G EGPH-EKVG

Flight info

Callsign FLI57G
Flight time 1h 11m
Altitude 38000
Route GRICE P600 GLESK DCT SMOKI DCT NALAN DCT SUDUR
Aircraft A320/M-SDE3FGHIRWY/LB1

Departure

Time 2026-04-21 10:57
Airport Edinburgh Airport (EGPH)

Arrival

Time 2026-04-21 12:08
Airport Vágar Airport (EKVG)
Time Latitude Longitude Altitude Speed Heading
2026-04-21 10:26 55.94832 -3.35808 113 ft 0 kts 208°
2026-04-21 10:45 55.94847 -3.35794 113 ft 4 kts 209°
2026-04-21 10:45 55.94866 -3.35775 115 ft 4 kts 210°
2026-04-21 10:45 55.94885 -3.35746 112 ft 4 kts 252°
2026-04-21 10:46 55.94884 -3.35703 113 ft 4 kts 296°
2026-04-21 10:46 55.94881 -3.35690 114 ft 0 kts 298°
2026-04-21 10:49 55.94895 -3.35736 113 ft 7 kts 298°
2026-04-21 10:49 55.94920 -3.35814 116 ft 7 kts 304°
2026-04-21 10:50 55.94962 -3.35860 114 ft 8 kts 349°
2026-04-21 10:50 55.95012 -3.35835 115 ft 8 kts 16°
2026-04-21 10:50 55.95065 -3.35902 115 ft 10 kts 298°
2026-04-21 10:50 55.95094 -3.36006 114 ft 9 kts 290°
2026-04-21 10:51 55.95113 -3.36108 112 ft 10 kts 288°
2026-04-21 10:51 55.95136 -3.36241 115 ft 11 kts 277°
2026-04-21 10:51 55.95109 -3.36354 114 ft 9 kts 238°
2026-04-21 10:51 55.95075 -3.36455 113 ft 11 kts 239°
2026-04-21 10:52 55.95028 -3.36596 114 ft 14 kts 239°
2026-04-21 10:52 55.94982 -3.36733 115 ft 12 kts 238°
2026-04-21 10:52 55.94940 -3.36855 114 ft 11 kts 239°
2026-04-21 10:52 55.94895 -3.36986 113 ft 13 kts 238°
2026-04-21 10:53 55.94852 -3.37114 113 ft 12 kts 239°
2026-04-21 10:53 55.94804 -3.37255 114 ft 13 kts 240°
2026-04-21 10:53 55.94757 -3.37393 114 ft 16 kts 238°
2026-04-21 10:53 55.94700 -3.37562 114 ft 15 kts 239°
2026-04-21 10:54 55.94647 -3.37718 116 ft 14 kts 239°
2026-04-21 10:54 55.94599 -3.37860 114 ft 13 kts 239°
2026-04-21 10:54 55.94543 -3.38027 113 ft 20 kts 239°
2026-04-21 10:54 55.94474 -3.38229 113 ft 18 kts 239°
2026-04-21 10:55 55.94410 -3.38417 114 ft 17 kts 239°
2026-04-21 10:55 55.94353 -3.38588 114 ft 16 kts 238°
2026-04-21 10:55 55.94299 -3.38744 114 ft 13 kts 238°
2026-04-21 10:55 55.94300 -3.38876 113 ft 11 kts 316°
2026-04-21 10:56 55.94361 -3.38948 113 ft 11 kts 330°
2026-04-21 10:56 55.94428 -3.38932 114 ft 10 kts 46°
2026-04-21 10:56 55.94463 -3.38833 114 ft 8 kts 58°
2026-04-21 10:56 55.94468 -3.38820 114 ft 0 kts 58°
2026-04-21 10:57 55.94567 -3.38526 113 ft 64 kts 59°
2026-04-21 10:57 55.94910 -3.37511 113 ft 124 kts 59°
2026-04-21 10:57 55.95416 -3.35973 359 ft 151 kts 61°
2026-04-21 10:57 55.95994 -3.34375 975 ft 157 kts 52°
2026-04-21 10:58 55.96822 -3.33066 1713 ft 160 kts 40°
2026-04-21 10:58 55.97696 -3.31823 2339 ft 168 kts 41°
2026-04-21 10:58 55.98643 -3.30433 2782 ft 185 kts 43°
2026-04-21 10:58 55.99687 -3.28839 3111 ft 211 kts 40°
2026-04-21 10:59 56.01058 -3.27509 3470 ft 242 kts 21°
2026-04-21 10:59 56.02811 -3.27094 4035 ft 268 kts 360°
2026-04-21 10:59 56.04675 -3.28043 4673 ft 291 kts 334°
2026-04-21 10:59 56.06248 -3.30508 5299 ft 314 kts 307°
2026-04-21 11:00 56.07152 -3.34190 5788 ft 335 kts 285°
2026-04-21 11:00 56.07708 -3.38132 5871 ft 321 kts 284°
2026-04-21 11:00 56.08237 -3.41870 5994 ft 297 kts 284°
2026-04-21 11:00 56.08748 -3.45405 6009 ft 290 kts 285°
2026-04-21 11:01 56.09255 -3.48865 6017 ft 291 kts 285°
2026-04-21 11:01 56.09772 -3.52382 6015 ft 291 kts 285°
2026-04-21 11:01 56.10566 -3.55704 6016 ft 290 kts 302°
2026-04-21 11:02 56.12624 -3.61872 6453 ft 291 kts 307°
2026-04-21 11:02 56.13974 -3.64568 6562 ft 290 kts 322°
2026-04-21 11:02 56.15638 -3.66569 6576 ft 285 kts 334°
2026-04-21 11:02 56.17224 -3.68777 6919 ft 297 kts 312°
2026-04-21 11:03 56.18550 -3.71613 7876 ft 297 kts 311°
2026-04-21 11:03 56.19859 -3.74459 8722 ft 301 kts 311°
2026-04-21 11:03 56.21209 -3.77387 9604 ft 304 kts 311°
2026-04-21 11:03 56.22575 -3.80327 10435 ft 309 kts 311°
2026-04-21 11:04 56.23984 -3.83323 10967 ft 323 kts 311°
2026-04-21 11:04 56.25498 -3.86510 11237 ft 344 kts 311°
2026-04-21 11:04 56.27062 -3.89790 11838 ft 352 kts 311°
2026-04-21 11:04 56.28668 -3.93164 12570 ft 357 kts 311°
2026-04-21 11:05 56.30296 -3.96594 13320 ft 361 kts 311°
2026-04-21 11:05 56.31935 -4.00055 14070 ft 365 kts 311°
2026-04-21 11:05 56.33575 -4.03522 14739 ft 369 kts 312°
2026-04-21 11:05 56.35257 -4.07077 15358 ft 374 kts 312°
2026-04-21 11:06 56.36961 -4.10680 15982 ft 378 kts 311°
2026-04-21 11:06 56.38678 -4.14319 16609 ft 382 kts 311°
2026-04-21 11:06 56.40387 -4.17958 17216 ft 386 kts 311°
2026-04-21 11:06 56.42129 -4.21674 17838 ft 390 kts 311°
2026-04-21 11:07 56.43958 -4.25359 18447 ft 393 kts 318°
2026-04-21 11:07 56.46100 -4.28458 19003 ft 394 kts 330°
2026-04-21 11:07 56.48491 -4.30749 19515 ft 394 kts 341°
2026-04-21 11:07 56.51103 -4.32211 20068 ft 391 kts 353°
2026-04-21 11:08 56.53785 -4.33083 20652 ft 393 kts 354°
2026-04-21 11:08 56.56490 -4.33962 21259 ft 395 kts 354°
2026-04-21 11:08 56.59206 -4.34858 21840 ft 397 kts 354°
2026-04-21 11:08 56.61941 -4.35772 22408 ft 400 kts 354°
2026-04-21 11:09 56.64695 -4.36696 22965 ft 403 kts 354°
2026-04-21 11:09 56.67431 -4.37610 23511 ft 405 kts 354°
2026-04-21 11:09 56.70227 -4.38536 24060 ft 408 kts 354°
2026-04-21 11:09 56.73031 -4.39460 24520 ft 410 kts 354°
2026-04-21 11:10 56.75857 -4.40393 24949 ft 413 kts 354°
2026-04-21 11:10 56.78657 -4.41319 25392 ft 413 kts 354°
2026-04-21 11:10 56.81494 -4.42263 25837 ft 415 kts 354°
2026-04-21 11:10 56.84355 -4.43218 26249 ft 417 kts 354°
2026-04-21 11:11 56.87222 -4.44176 26654 ft 419 kts 353°
2026-04-21 11:11 56.90072 -4.45129 27042 ft 422 kts 353°
2026-04-21 11:11 56.92978 -4.46106 27407 ft 425 kts 353°
2026-04-21 11:11 56.95896 -4.47090 27773 ft 427 kts 353°
2026-04-21 11:12 56.98830 -4.48077 28156 ft 429 kts 353°
2026-04-21 11:12 57.01785 -4.49071 28520 ft 432 kts 353°
2026-04-21 11:12 57.04719 -4.50061 28879 ft 433 kts 353°
2026-04-21 11:12 57.07695 -4.51064 29270 ft 434 kts 353°
2026-04-21 11:13 57.10682 -4.52068 29621 ft 436 kts 353°
2026-04-21 11:13 57.13649 -4.53065 29974 ft 438 kts 353°
2026-04-21 11:13 57.16659 -4.54086 30304 ft 441 kts 353°
2026-04-21 11:13 57.19685 -4.55119 30622 ft 443 kts 352°
2026-04-21 11:14 57.22741 -4.56162 30885 ft 445 kts 352°
2026-04-21 11:14 57.25753 -4.57192 31140 ft 446 kts 352°
2026-04-21 11:14 57.28818 -4.58241 31389 ft 448 kts 352°
2026-04-21 11:14 57.31888 -4.59294 31650 ft 449 kts 352°
2026-04-21 11:15 57.34976 -4.60356 31907 ft 450 kts 352°
2026-04-21 11:15 57.38065 -4.61421 32224 ft 450 kts 352°
2026-04-21 11:15 57.41145 -4.62489 32570 ft 449 kts 352°
2026-04-21 11:15 57.44177 -4.63537 32905 ft 448 kts 352°
2026-04-21 11:16 57.47255 -4.64596 33225 ft 448 kts 353°
2026-04-21 11:16 57.50321 -4.65652 33545 ft 447 kts 352°
2026-04-21 11:16 57.53382 -4.66713 33877 ft 447 kts 352°
2026-04-21 11:16 57.56446 -4.67780 34203 ft 446 kts 352°
2026-04-21 11:17 57.59457 -4.68831 34560 ft 444 kts 352°
2026-04-21 11:17 57.62492 -4.69889 34886 ft 442 kts 352°
2026-04-21 11:17 57.65524 -4.70946 35149 ft 442 kts 352°
2026-04-21 11:17 57.68548 -4.72003 35389 ft 442 kts 353°
2026-04-21 11:18 57.71541 -4.73049 35612 ft 441 kts 352°
2026-04-21 11:18 57.74580 -4.74114 35843 ft 441 kts 354°
2026-04-21 11:18 57.77607 -4.75178 36079 ft 441 kts 352°
2026-04-21 11:18 57.80633 -4.76243 36283 ft 441 kts 352°
2026-04-21 11:19 57.83621 -4.77294 36487 ft 441 kts 353°
2026-04-21 11:19 57.86641 -4.78359 36700 ft 441 kts 352°
2026-04-21 11:19 57.89657 -4.79425 36918 ft 440 kts 352°
2026-04-21 11:19 57.92677 -4.80494 37108 ft 440 kts 352°
2026-04-21 11:20 57.95701 -4.81565 37302 ft 440 kts 352°
2026-04-21 11:20 57.98670 -4.82620 37479 ft 440 kts 352°
2026-04-21 11:20 58.01689 -4.83695 37657 ft 440 kts 352°
2026-04-21 11:20 58.04719 -4.84774 37832 ft 440 kts 352°
2026-04-21 11:21 58.07736 -4.85850 38008 ft 440 kts 352°
2026-04-21 11:21 58.10732 -4.86921 38182 ft 440 kts 352°
2026-04-21 11:21 58.13756 -4.88005 38332 ft 440 kts 352°
2026-04-21 11:21 58.16768 -4.89086 38547 ft 440 kts 352°
2026-04-21 11:22 58.22759 -4.91249 38612 ft 440 kts 352°
2026-04-21 11:22 58.28786 -4.93423 38627 ft 440 kts 352°
2026-04-21 11:23 58.34809 -4.95611 38625 ft 440 kts 352°
2026-04-21 11:23 58.40799 -4.97793 38639 ft 440 kts 352°
2026-04-21 11:24 58.45840 -4.99637 38629 ft 439 kts 352°
2026-04-21 11:24 58.51830 -5.01837 38646 ft 440 kts 352°
2026-04-21 11:25 58.57844 -5.04048 38652 ft 440 kts 352°
2026-04-21 11:25 58.63833 -5.06239 38661 ft 440 kts 352°
2026-04-21 11:26 58.69861 -5.08464 38659 ft 440 kts 352°
2026-04-21 11:26 58.75887 -5.10709 38666 ft 440 kts 352°
2026-04-21 11:27 58.81879 -5.12954 38666 ft 440 kts 352°
2026-04-21 11:27 58.87901 -5.15206 38667 ft 440 kts 352°
2026-04-21 11:28 58.93897 -5.17453 38646 ft 440 kts 352°
2026-04-21 11:28 58.99914 -5.19729 38664 ft 439 kts 352°
2026-04-21 11:29 59.05904 -5.21991 38671 ft 439 kts 352°
2026-04-21 11:29 59.11870 -5.24248 38673 ft 439 kts 352°
2026-04-21 11:30 59.17879 -5.26528 38678 ft 439 kts 352°
2026-04-21 11:30 59.23886 -5.28824 38666 ft 438 kts 352°
2026-04-21 11:31 59.29846 -5.31117 38679 ft 438 kts 352°
2026-04-21 11:31 59.35838 -5.33423 38687 ft 437 kts 352°
2026-04-21 11:32 59.41779 -5.35711 38688 ft 437 kts 352°
2026-04-21 11:32 59.47767 -5.38028 38688 ft 437 kts 352°
2026-04-21 11:33 59.53719 -5.40341 38681 ft 437 kts 352°
2026-04-21 11:33 59.59701 -5.42678 38690 ft 437 kts 352°
2026-04-21 11:34 59.65644 -5.45003 38692 ft 437 kts 352°
2026-04-21 11:34 59.71620 -5.47363 38693 ft 437 kts 352°
2026-04-21 11:35 59.77549 -5.49697 38677 ft 436 kts 352°
2026-04-21 11:35 59.83492 -5.52042 38693 ft 435 kts 352°
2026-04-21 11:36 59.89442 -5.54404 38696 ft 434 kts 352°
2026-04-21 11:36 59.95345 -5.56766 38700 ft 434 kts 352°
2026-04-21 11:37 60.01285 -5.59148 38700 ft 434 kts 352°
2026-04-21 11:37 60.07221 -5.61526 38685 ft 434 kts 352°
2026-04-21 11:38 60.13103 -5.63898 38697 ft 433 kts 352°
2026-04-21 11:38 60.16074 -5.65103 38535 ft 432 kts 352°
2026-04-21 11:38 60.19019 -5.66302 38259 ft 430 kts 352°
2026-04-21 11:39 60.21950 -5.67500 37993 ft 429 kts 352°
2026-04-21 11:39 60.24869 -5.68695 37728 ft 428 kts 352°
2026-04-21 11:39 60.27746 -5.69874 37470 ft 427 kts 352°
2026-04-21 11:39 60.30659 -5.71064 37217 ft 426 kts 353°
2026-04-21 11:40 60.33559 -5.72241 36959 ft 425 kts 353°
2026-04-21 11:40 60.36454 -5.73414 36684 ft 421 kts 353°
2026-04-21 11:40 60.39318 -5.74586 36434 ft 418 kts 353°
2026-04-21 11:40 60.42156 -5.75753 36152 ft 413 kts 353°
2026-04-21 11:41 60.44965 -5.76914 35672 ft 409 kts 353°
2026-04-21 11:41 60.47712 -5.78054 35190 ft 405 kts 354°
2026-04-21 11:41 60.50463 -5.79193 34697 ft 402 kts 354°
2026-04-21 11:41 60.53196 -5.80323 34161 ft 398 kts 354°
2026-04-21 11:42 60.55890 -5.81442 33692 ft 393 kts 354°
2026-04-21 11:42 60.58557 -5.82551 33213 ft 388 kts 354°
2026-04-21 11:42 60.61199 -5.83651 32753 ft 384 kts 354°
2026-04-21 11:42 60.63804 -5.84735 32285 ft 380 kts 354°
2026-04-21 11:43 60.66381 -5.85812 31854 ft 376 kts 354°
2026-04-21 11:43 60.68937 -5.86878 31414 ft 372 kts 354°
2026-04-21 11:43 60.71432 -5.87922 30991 ft 369 kts 354°
2026-04-21 11:43 60.73947 -5.88975 30536 ft 366 kts 354°
2026-04-21 11:44 60.76433 -5.90019 30109 ft 361 kts 354°
2026-04-21 11:44 60.78880 -5.91052 29710 ft 356 kts 353°
2026-04-21 11:44 60.81268 -5.92065 29317 ft 352 kts 353°
2026-04-21 11:44 60.83659 -5.93076 28892 ft 351 kts 353°
2026-04-21 11:45 60.86086 -5.94090 28208 ft 358 kts 353°
2026-04-21 11:45 60.88512 -5.95104 27526 ft 361 kts 353°
2026-04-21 11:45 60.90999 -5.96156 26843 ft 365 kts 353°
2026-04-21 11:45 60.93508 -5.97226 26167 ft 368 kts 352°
2026-04-21 11:46 60.96024 -5.98300 25523 ft 371 kts 352°
2026-04-21 11:46 60.98510 -5.99602 24896 ft 376 kts 344°
2026-04-21 11:46 61.00900 -6.01949 24287 ft 384 kts 332°
2026-04-21 11:46 61.03048 -6.05300 23550 ft 390 kts 323°
2026-04-21 11:47 61.05124 -6.08945 22842 ft 392 kts 323°
2026-04-21 11:47 61.07184 -6.12569 22147 ft 393 kts 323°
2026-04-21 11:47 61.09270 -6.16248 21476 ft 394 kts 323°
2026-04-21 11:47 61.11365 -6.19942 20814 ft 395 kts 322°
2026-04-21 11:48 61.13463 -6.23642 20168 ft 395 kts 322°
2026-04-21 11:48 61.15531 -6.27295 19528 ft 395 kts 322°
2026-04-21 11:48 61.17622 -6.31008 18893 ft 395 kts 322°
2026-04-21 11:48 61.19698 -6.34701 18175 ft 395 kts 322°
2026-04-21 11:49 61.21790 -6.38425 17473 ft 395 kts 322°
2026-04-21 11:49 61.23871 -6.42135 16794 ft 394 kts 322°
2026-04-21 11:49 61.25955 -6.45852 16128 ft 393 kts 322°
2026-04-21 11:49 61.28037 -6.49570 15471 ft 392 kts 322°
2026-04-21 11:50 61.30103 -6.53267 14835 ft 391 kts 321°
2026-04-21 11:50 61.32134 -6.56915 14174 ft 389 kts 321°
2026-04-21 11:50 61.34180 -6.60596 13470 ft 386 kts 321°
2026-04-21 11:50 61.34613 -6.61375 13323 ft 386 kts 321°
2026-04-21 11:51 61.35595 -6.63143 12989 ft 384 kts 321°
2026-04-21 11:51 61.37351 -6.66308 12388 ft 381 kts 321°
2026-04-21 11:53 61.38209 -6.67854 12106 ft 380 kts 321°
2026-04-21 11:54 61.39398 -6.70006 11713 ft 378 kts 321°
2026-04-21 11:54 61.41376 -6.73599 11066 ft 374 kts 321°
2026-04-21 11:54 61.43320 -6.77132 10683 ft 363 kts 321°
2026-04-21 11:55 61.45194 -6.80542 10403 ft 350 kts 320°
2026-04-21 11:55 61.46973 -6.83777 10105 ft 338 kts 320°
2026-04-21 11:55 61.48722 -6.86962 9827 ft 327 kts 320°
2026-04-21 11:55 61.50408 -6.90039 9586 ft 315 kts 320°
2026-04-21 11:56 61.52037 -6.93012 9358 ft 305 kts 320°
2026-04-21 11:56 61.53595 -6.95858 9117 ft 296 kts 320°
2026-04-21 11:56 61.55125 -6.98665 8877 ft 287 kts 320°
2026-04-21 11:56 61.56616 -7.01409 8652 ft 280 kts 320°
2026-04-21 11:57 61.58054 -7.04058 8415 ft 277 kts 320°
2026-04-21 11:57 61.59502 -7.06716 8186 ft 275 kts 321°
2026-04-21 11:57 61.61085 -7.08951 7960 ft 273 kts 335°
2026-04-21 11:57 61.62815 -7.10633 7729 ft 272 kts 336°
2026-04-21 11:58 61.64566 -7.12109 7452 ft 270 kts 346°
2026-04-21 11:58 61.66380 -7.12754 7182 ft 267 kts 358°
2026-04-21 11:58 61.68226 -7.12524 6899 ft 266 kts 11°
2026-04-21 11:58 61.70001 -7.11442 6611 ft 265 kts 23°
2026-04-21 11:59 61.71594 -7.09610 6323 ft 263 kts 36°
2026-04-21 11:59 61.72994 -7.07111 6038 ft 263 kts 43°
2026-04-21 11:59 61.74345 -7.04515 5757 ft 263 kts 42°
2026-04-21 11:59 61.75707 -7.01914 5470 ft 263 kts 42°
2026-04-21 12:00 61.77064 -6.99316 5176 ft 262 kts 42°
2026-04-21 12:00 61.78396 -6.96766 5016 ft 261 kts 41°
2026-04-21 12:00 61.79744 -6.94185 5013 ft 261 kts 42°
2026-04-21 12:00 61.81095 -6.91586 5004 ft 262 kts 41°
2026-04-21 12:01 61.82447 -6.88973 4901 ft 262 kts 42°
2026-04-21 12:01 61.83792 -6.86375 4800 ft 261 kts 42°
2026-04-21 12:01 61.85123 -6.83818 4700 ft 261 kts 40°
2026-04-21 12:01 61.86624 -6.81674 4590 ft 255 kts 26°
2026-04-21 12:02 61.88237 -6.80416 4485 ft 240 kts 13°
2026-04-21 12:02 61.91379 -6.80288 4274 ft 221 kts 348°
2026-04-21 12:02 61.92844 -6.81238 4168 ft 220 kts 336°
2026-04-21 12:03 61.94185 -6.82802 4070 ft 219 kts 324°
2026-04-21 12:03 61.95337 -6.84917 4014 ft 219 kts 311°
2026-04-21 12:03 61.96240 -6.87524 4013 ft 219 kts 301°
2026-04-21 12:03 61.96971 -6.90259 4008 ft 205 kts 298°
2026-04-21 12:04 61.97623 -6.92842 4010 ft 198 kts 298°
2026-04-21 12:04 61.98271 -6.95413 3986 ft 197 kts 298°
2026-04-21 12:04 61.98917 -6.97976 3791 ft 193 kts 298°
2026-04-21 12:04 61.99540 -7.00450 3487 ft 191 kts 298°
2026-04-21 12:05 62.00162 -7.02924 3180 ft 185 kts 298°
2026-04-21 12:05 62.00748 -7.05252 2890 ft 172 kts 298°
2026-04-21 12:05 62.01293 -7.07424 2617 ft 161 kts 298°
2026-04-21 12:05 62.01808 -7.09479 2359 ft 153 kts 298°
2026-04-21 12:06 62.02286 -7.11385 2122 ft 144 kts 298°
2026-04-21 12:06 62.02747 -7.13226 1887 ft 139 kts 299°
2026-04-21 12:06 62.03201 -7.15039 1666 ft 137 kts 299°
2026-04-21 12:06 62.03649 -7.16831 1439 ft 136 kts 299°
2026-04-21 12:07 62.04087 -7.18583 1219 ft 135 kts 298°
2026-04-21 12:07 62.04525 -7.20337 1013 ft 133 kts 297°
2026-04-21 12:07 62.04957 -7.22072 782 ft 132 kts 297°
2026-04-21 12:07 62.05387 -7.23797 568 ft 131 kts 296°
2026-04-21 12:08 62.05805 -7.25484 355 ft 129 kts 296°
2026-04-21 12:08 62.06205 -7.27105 277 ft 109 kts 297°
2026-04-21 12:08 62.06481 -7.28216 280 ft 60 kts 297°
2026-04-21 12:08 62.06633 -7.28829 273 ft 32 kts 298°
2026-04-21 12:09 62.06695 -7.29069 270 ft 12 kts 298°
2026-04-21 12:09 62.06736 -7.29190 269 ft 10 kts 283°
2026-04-21 12:09 62.06707 -7.29168 269 ft 7 kts 99°
2026-04-21 12:09 62.06697 -7.29083 269 ft 5 kts 111°
2026-04-21 12:10 62.06678 -7.29003 270 ft 9 kts 118°
2026-04-21 12:10 62.06643 -7.28865 274 ft 12 kts 117°
2026-04-21 12:10 62.06607 -7.28716 275 ft 10 kts 118°
2026-04-21 12:10 62.06573 -7.28577 278 ft 11 kts 117°
2026-04-21 12:11 62.06546 -7.28468 278 ft 9 kts 118°
2026-04-21 12:11 62.06516 -7.28348 280 ft 7 kts 118°
2026-04-21 12:11 62.06510 -7.28325 283 ft 0 kts 117°
2026-04-21 12:11 62.06508 -7.28314 280 ft 5 kts 118°
2026-04-21 12:12 62.06489 -7.28191 281 ft 9 kts 81°
2026-04-21 12:12 62.06517 -7.28137 280 ft 9 kts 26°
2026-04-21 12:12 62.06594 -7.28090 278 ft 5 kts
2026-04-21 12:12 62.06611 -7.28089 279 ft 3 kts
2026-04-21 12:13 62.06644 -7.28063 280 ft 6 kts 45°
2026-04-21 12:13 62.06646 -7.27970 282 ft 8 kts 105°
2026-04-21 12:13 62.06641 -7.27943 282 ft 2 kts 109°
2026-04-21 12:13 62.06653 -7.27887 282 ft 4 kts 38°
2026-04-21 12:14 62.06666 -7.27870 279 ft 1 kts 30°
2026-04-21 12:14 62.06671 -7.27864 279 ft 0 kts 30°
2026-04-21 12:14 62.06674 -7.27860 279 ft 1 kts 30°
2026-04-21 12:14 62.06675 -7.27859 279 ft 0 kts 30°